Weather History for KPVC - December, 2012

Change the Weather History Date:

Saturday, December 29, 2012

  Actual Average Record
Temperature  
Mean Temperature 37 °F -  
Max Temperature 41 °F 38 °F 58 °F (1951)
Min Temperature 33 °F 28 °F 19 °F (1950)
Degree Days  
Heating Degree Days 28    
Moisture  
Dew Point 31 °F    
Average Humidity 82    
Maximum Humidity 100    
Minimum Humidity 70    
Precipitation  
Precipitation 0.38 in - - ()
Sea Level Pressure  
Sea Level Pressure 29.77 in    
Wind  
Wind Speed 12 mph (NNE)    
Max Wind Speed 31 mph    
Max Gust Speed 39 mph    
Visibility 9 miles    
Events      
Averages and records for this station are not official NWS values.
T = Trace of Precipitation, MM = Missing Value Source: NWS Daily Summary

Daily Weather History Graph

Daily Weather History Graph

Search for Another Location

Airport or City:

Trip Planner

Search our weather history database for the weather conditions in past years. The results will help you decide how hot, cold, wet, or windy it might be!

Date:

Astronomy

Dec. 29, 2012 Rise Set
Actual Time 7:08 AM EST 4:17 PM EST
Civil Twilight 6:37 AM EST 4:49 PM EST
Nautical Twilight 6:01 AM EST 5:24 PM EST
Astronomical Twilight 5:27 AM EST 5:58 PM EST
Moon 5:49 PM EST (12/29) 7:38 AM EST (12/29)
Length of Visible Light 10h 12m
Length of Day
9h 08m
Full, 98% of the Moon is Illuminated
Dec 29
Full
Jan 4
Last Quarter
Jan 11
New
Jan 18
First Quarter
Jan 26
Full

Hourly Weather History & Observations

Time (EST) Temp. Windchill Dew Point Humidity Pressure Visibility Wind Dir Wind Speed Gust Speed Precip Events Conditions
12:15 AM 35.6 °F 26.2 °F 26.6 °F 70% 30.00 in 10.0 mi NW 15.0 mph 20.7 mph N/A   Clear
12:35 AM 35.6 °F 26.6 °F 26.6 °F 70% 29.99 in 10.0 mi NW 13.8 mph 20.7 mph N/A   Clear
12:55 AM 35.6 °F 26.2 °F 26.6 °F 70% 29.99 in 10.0 mi NW 15.0 mph 19.6 mph N/A   Clear
1:35 AM 35.6 °F 27.5 °F 26.6 °F 70% 30.00 in 10.0 mi NW 11.5 mph - N/A   Clear
2:15 AM 35.6 °F 27.5 °F 26.6 °F 70% 30.01 in 10.0 mi NW 11.5 mph - N/A   Clear
3:16 AM 33.8 °F 27.0 °F 28.4 °F 81% 30.00 in 10.0 mi West 8.1 mph - N/A   Clear
3:35 AM 33.8 °F 26.4 °F 26.6 °F 75% 30.00 in 10.0 mi West 9.2 mph - N/A   Clear
3:56 AM 33.8 °F 25.3 °F 26.6 °F 75% 30.00 in 10.0 mi WNW 11.5 mph - N/A   Clear
4:15 AM 33.8 °F 26.4 °F 28.4 °F 81% 30.00 in 10.0 mi WNW 9.2 mph - N/A   Clear
4:35 AM 33.8 °F 26.4 °F 28.4 °F 81% 29.99 in 10.0 mi NW 9.2 mph - N/A   Clear
4:55 AM 33.8 °F 27.7 °F 28.4 °F 81% 29.99 in 10.0 mi NW 6.9 mph - N/A   Clear
5:15 AM 35.6 °F 28.6 °F 30.2 °F 81% 29.99 in 10.0 mi NW 9.2 mph - N/A   Clear
5:55 AM 35.6 °F 29.9 °F 26.6 °F 70% 29.99 in 10.0 mi NW 6.9 mph - N/A   Clear
6:15 AM 35.6 °F 30.7 °F 28.4 °F 75% 29.99 in 10.0 mi NW 5.8 mph - N/A   Clear
6:35 AM 35.6 °F 31.7 °F 26.6 °F 70% 29.98 in 10.0 mi NNW 4.6 mph - N/A   Clear
6:55 AM 35.6 °F 31.7 °F 28.4 °F 75% 29.99 in 10.0 mi WNW 4.6 mph - N/A   Clear
7:15 AM 35.6 °F 32.8 °F 26.6 °F 70% 29.99 in 10.0 mi West 3.5 mph - N/A   Clear
7:35 AM 33.8 °F - 28.4 °F 81% 29.98 in 10.0 mi Calm Calm - N/A   Clear
7:55 AM 33.8 °F 30.8 °F 28.4 °F 81% 29.98 in 10.0 mi SW 3.5 mph - N/A   Scattered Clouds
8:15 AM 33.8 °F 30.8 °F 28.4 °F 81% 29.98 in 10.0 mi SSW 3.5 mph - N/A   Overcast
8:35 AM 35.6 °F 32.8 °F 28.4 °F 75% 29.98 in 10.0 mi WSW 3.5 mph - N/A   Overcast
9:15 AM 35.6 °F - 30.2 °F 81% 29.97 in 10.0 mi Calm Calm - N/A   Overcast
9:35 AM 35.6 °F 32.8 °F 30.2 °F 81% 29.95 in 10.0 mi NE 3.5 mph - N/A   Overcast
9:56 AM 37.4 °F 32.8 °F 32.0 °F 81% 29.96 in 10.0 mi SSW 5.8 mph - N/A   Overcast
10:15 AM 35.6 °F 32.8 °F 30.2 °F 81% 29.93 in 10.0 mi NE 3.5 mph - N/A   Overcast
10:55 AM 37.4 °F 34.9 °F 30.2 °F 75% 29.92 in 10.0 mi South 3.5 mph - N/A   Overcast
11:35 AM 37.4 °F 32.8 °F 30.2 °F 75% 29.89 in 10.0 mi SSE 5.8 mph - N/A   Overcast
12:15 PM 37.4 °F 32.8 °F 28.4 °F 70% 29.86 in 10.0 mi ESE 5.8 mph - N/A   Overcast
12:35 PM 37.4 °F 32.8 °F 30.2 °F 75% 29.84 in 10.0 mi ESE 5.8 mph - N/A   Overcast
1:55 PM 39.2 °F 33.0 °F 30.2 °F 70% 29.76 in 10.0 mi East 9.2 mph - N/A   Overcast
2:15 PM 39.2 °F 31.6 °F 32.0 °F 75% 29.74 in 10.0 mi East 12.7 mph - N/A   Overcast
2:35 PM 39.2 °F 31.6 °F 33.8 °F 81% 29.73 in 10.0 mi East 12.7 mph - N/A   Overcast
2:55 PM 41.0 °F 34.3 °F 33.8 °F 76% 29.72 in 10.0 mi East 11.5 mph 16.1 mph N/A   Overcast
4:35 PM 39.2 °F 32.0 °F 37.4 °F 93% 29.63 in 10.0 mi East 11.5 mph - N/A   Overcast
4:55 PM 39.2 °F 31.2 °F 37.4 °F 93% 29.61 in 10.0 mi East 13.8 mph 21.9 mph N/A   Overcast
5:15 PM 39.2 °F 30.5 °F 37.4 °F 93% 29.58 in 10.0 mi East 16.1 mph 23.0 mph N/A   Overcast
5:35 PM 39.2 °F 29.8 °F 37.4 °F 93% 29.56 in 10.0 mi East 18.4 mph 25.3 mph N/A   Overcast
6:15 PM 39.2 °F 29.8 °F 37.4 °F 93% 29.49 in 10.0 mi East 18.4 mph 28.8 mph N/A   Overcast
6:35 PM 39.2 °F 29.3 °F 37.4 °F 93% 29.48 in 10.0 mi East 20.7 mph 26.5 mph N/A   Overcast
6:55 PM 39.2 °F 29.6 °F 37.4 °F 93% 29.50 in 10.0 mi East 19.6 mph 26.5 mph N/A   Overcast
7:15 PM 39.2 °F 29.0 °F 37.4 °F 93% 29.45 in 7.0 mi ENE 21.9 mph 29.9 mph 0.05 in   Overcast
7:35 PM 39.2 °F 28.5 °F 37.4 °F 93% 29.43 in 9.0 mi East 24.2 mph 32.2 mph 0.12 in   Overcast
7:55 PM 39.2 °F 28.0 °F 35.6 °F 87% 29.39 in 7.0 mi ENE 26.5 mph 35.7 mph 0.19 in   Overcast
8:15 PM 39.2 °F 28.3 °F 37.4 °F 93% 29.34 in 7.0 mi ENE 25.3 mph 38.0 mph 0.05 in   Overcast
8:35 PM 37.4 °F 26.6 °F 35.6 °F 93% 29.31 in 5.0 mi ENE 21.9 mph 38.0 mph 0.16 in   Overcast
9:15 PM 37.4 °F 24.8 °F 35.6 °F 93% 29.32 in 4.0 mi ENE 31.1 mph 39.1 mph N/A   Overcast
9:55 PM 33.8 °F 19.9 °F 32.0 °F 93% 29.30 in 2.5 mi NNE 31.1 mph 38.0 mph N/A   Mostly Cloudy
10:35 PM 33.8 °F 21.6 °F 33.8 °F 100% 29.30 in 4.0 mi NNE 23.0 mph 36.8 mph 0.03 in   Mostly Cloudy
11:35 PM 33.8 °F 20.5 °F 33.8 °F 100% 29.29 in 2.5 mi North 27.6 mph 36.8 mph N/A   Overcast
11:55 PM 33.8 °F 20.8 °F 33.8 °F 100% 29.29 in 1.8 mi North 26.5 mph 33.4 mph N/A   Overcast